Baku airport (UBBB)

baku-airport

Baku International Airport

Heydar Aliyev International Airport is the main international airport in Azerbaijan located 20 km (12 mi) northeast of the capital Baku. The airport is the home of Azerbaijan Airlines, the national flag carrier. It is the busiest airport in Azerbaijan and of the Caucasus.

ICAO: UBBB, IATA: GYD

Charts: Jeppesen

Sceneries: freeware demos w. reduced resolution

 fs9     fsx     Prepar

payware: http://www.drzewiecki-design.net/

METAR:

UBBB 261230Z 18014KT CAVOK 21/09 Q1020 NOSIG

TAF UBBB 261104Z 2612/2712 19012KT 9999 SCT030 TX22/2612Z TN13/2702Z TEMPO 2612/2618 21018KT TEMPO 2618/2706 SCT012 FEW050CB TEMPO 2706/2712 16016KT